Regional Weather Roundup
Issued by NWS Newport/Morehead, NC

Current Version | Previous Version | Graphics & Text | Print | Product List | Glossary Off
Versions: 1 2 3 4 5 6 7 8 9 10 11 12 13 14 15 16 17 18 19 20 21 22 23 24 25 26 27 28 29 30 31 32 33 34 35 36 37 38 39 40 41 42 43 44 45 46 47 48 49 50

000
ASUS42 KMHX 290325
RWRMHX
WEATHER ROUNDUP FOR EASTERN NORTH CAROLINA
NATIONAL WEATHER SERVICE NEWPORT/MOREHEAD CITY NC
1100 PM EDT SAT MAY 28 2016

NOTE: "FAIR" INDICATES FEW OR NO CLOUDS BELOW 12,000 FEET
WITH NO SIGNIFICANT WEATHER AND/OR OBSTRUCTIONS TO VISIBILITY

NCZ015>017-031-032-045>047-102-103-290400-
NORTH COAST

CITY           SKY/WX    TMP DP  RH WIND       PRES   REMARKS
EDENTON        PTCLDY   N/A N/A N/A E3        30.15F
ELIZABETH CITY PTCLDY    71  68  90 E6        30.16S
KITTY HAWK     CLEAR     70  67  90 SE3       30.15S
MANTEO         NOT AVBL

$$

NCZ045>047-081-094-103-104-290400-
CENTRAL COAST

CITY           SKY/WX    TMP DP  RH WIND       PRES   REMARKS
FRISCO         PTCLDY    76  72  87 SE8       30.14S

$$

NCZ095-097-098-100-101-290400-
SOUTHERN COAST

CITY           SKY/WX    TMP DP  RH WIND       PRES   REMARKS
BEAUFORT       PTCLDY    76  72  87 E5        30.11F
CEDAR ISLAND   NOT AVBL
JACKSONVILLE   MOCLDY    75  69  81 NE6       30.10F
PINEY ISLAND   CLOUDY   N/A N/A N/A E8        30.12S
WILMINGTON     LGT RAIN  74  72  93 E7        30.09F


$$

NCZ011>013-027>030-043-044-078>080-089-090>093-098-290400-
COASTAL PLAIN

CITY           SKY/WX    TMP DP  RH WIND       PRES   REMARKS
AHOSKIE        PTCLDY    70  64  83 CALM      30.15F
CLINTON        PTCLDY    71  66  83 CALM      30.13S
ELIZABETHTOWN  CLOUDY    72  68  89 CALM      30.11F
GOLDSBORO      NOT AVBL
GREENVILLE     PTCLDY    72  70  94 CALM      30.15S
HAVELOCK       PTCLDY    75  71  87 NE7       30.13S
KENANSVILLE    PTCLDY    70  65  85 CALM      30.13S
KINSTON        CLOUDY    73  68  87 NE5       30.14S
NEW BERN       PTCLDY    73  70  90 NE5       30.13F
RICHLANDS      PTCLDY    73  70  90 NE5       30.12S
ROCKY MOUNT    CLOUDY    73  64  73 VRB3      30.14S
WASHINGTON     CLOUDY    71  68  90 E5        30.13F
WHITEVILLE     LGT RAIN  71  68  89 NE3       30.09F

$$

AMZ130-135-150-152-154-156-158-170-250-252-270-ANZ085-086-088-633-658-670-290400-
MARINE OBSERVATIONS

STATION/POSITION TIME  TEMP    WIND        PRES    WAVE   SWELL
                       AIR SEA DIR/SP/G            HT/PER HT/PER
                 (UTC) (F)     (DEG/KT/KT) (MB)    (FT/S) (FT/S)
CHESAPEAKE LIGHT 0300   70     100/ 12/ 12 1022.0
64 E VA BEACH    0250   69 66   70/  4/  4 1021.4    4/ 8   3/ 8
DUCK             0300   69 60              1020.6
2 E DUCK         0211      67                N/A     3/ 7
OREGON INLET     0300   72 74              1021.0
13E OREGON INLT  0300      71                N/A     3/ 8   3/ 8
HATTERAS CG      0300   76 76              1020.0
DIAMOND BUOY     0250   78 78  130/ 16/ 17 1020.1    4/ 8   2/ 8
CAPE LOOKOUT     0300   75     100/  9/ 10 1019.3
BEAUFORT LAB     0300   77 75              1018.9
30 SE NEW RVR IN 0225      75                N/A     5/ 7
27 SE WRIGHTSVLE 0308   74 75  110/ 14/ 17 1018.3
5 SE WRIGHTSVLE  0208   75 74   90/ 12/ 16 1019.5
225 S CAPE HAT   0250   75 76  120/ 17/ 19 1018.6    5/ 7
41 SE CHARLESTON 0250   77 78   90/ 21/ 27 1014.4    9/ 8   5/ 8

$$




USA.gov is the U.S. government's official web portal to all federal, state and local government web resources and services.